map of FCO home
FCO - Airport
Location
City:  Rome, Lazio, Italy
Near (Alt.):Roma
Name:Leonardo da Vinci International Airport
Old (Alt.):Fiumicino
ICAO:LIRF
IATA:FCO

Details
Type:Airport (Aerodrome, Airfield)
Use:Public/Civil, International (customs port of entry)
Latitude:4148'16"N (41.804475)
Longitude:1215'03"E (12.250797)
Datum:WGS 1984
Elevation:15 ft (5 m)
Variation:2.92E (WMM2015 magnetic declination)
0.11 annual change
Runways:3
Longest:12795 × 197 ft (3900 × 60 m), paved

Time
Time Zone:UTC+1 (DST+2)
Local Time:

Weather
METAR:LIRF 251120Z 20017KT CAVOK 20/09 Q1021 NOSIG
TAF:LIRF 251100Z 2512/2618 19012KT 9999 SCT040
BECMG 2518/2520 VRB06KT
TEMPO 2520/2522 RA
TEMPO 2522/2602 SHRA
BECMG 2605/2608 34014KT

Related Locations
Nearby:
Farthest:CHT: 11977 mi / 19274 km
Waitangi [Tuuta], CIT, NZ

Find:

   beyond  
but within

Other Information
Maps:
NOTAMs:
Links:
Sources:

  
flag of Italy
flag of Lazio
flag of Rome
  

Sectional Chart

Flight Planning
at skyvector.com

Satellite Image

Google Maps Satellite view

 

Copyright © 2004-2017 Karl L. Swartz. All rights reserved.
The Great Circle Mapper name and logo are trademarks of the Great Circle Mapper.
All other trademarks mentioned herein belong to their respective owners.
Please see credits for attibutions and further copyright information.

  Follow gcmap on Facebook Follow gcmap on Twitter Follow gcmap on Google+ GCmap on LinkedIn

hCard Microformat

Geo Microformat